Location: Chandolas
(44.4033°N, 4.2533°E)
Time: 15:57:05
(UTC+00:00)

Cosmos 2322 Rocket - Pass Details

Date: 15 November 2019
Orbit: 832 x 851 km, 71.0° (Epoch: 12 December)

Event Time Altitude Azimuth Distance (km) Brightness Sun altitude
Exits shadow 03:47:29 - 358° (N) 2,579 4.7 -30.5°
Reaches altitude 10° 03:47:55 10° 1° (N) 2,467 4.6 -30.4°
Maximum altitude 03:51:54 19° 46° (NE) 1,894 4.5 -29.7°
Drops below altitude 10° 03:55:54 10° 91° (E) 2,468 5.6 -29.0°
Sets 03:59:04 0° 109° (ESE) 3,402 6.4 -28.4°
